K7LER Weather Reports


Display with metric or nautical units.
time (UTC)temp
F
wind
direction
speed
MPH
gust
MPH
rain 1hr
in
rain 24hr
in
rain mn
in
humidity
%
barometer
mb
20191020165006 48 149 0.0 0.0 0.00 0.09 0.00 86 1016.5
20191020164506 48 149 0.0 3.0 0.00 0.09 0.00 86 1016.4
20191020164006 48 134 1.0 2.0 0.00 0.10 0.00 86 1016.4
20191020163507 48 129 1.0 2.0 0.00 0.10 0.00 86 1016.4
20191020163006 48 137 1.0 1.0 0.00 0.10 0.00 86 1016.5
20191020162505 48 154 1.0 2.0 0.00 0.10 0.00 86 1016.7
20191020162006 48 125 1.0 1.0 0.00 0.10 0.00 86 1016.6
20191020161506 48 136 0.0 1.0 0.00 0.10 0.00 86 1016.6
20191020161006 48 135 0.0 1.0 0.00 0.10 0.00 86 1016.7
20191020160506 48 135 1.0 2.0 0.00 0.10 0.00 86 1016.6
20191020160006 47 123 1.0 3.0 0.00 0.11 0.00 86 1016.7
20191020155506 48 133 1.0 2.0 0.00 0.11 0.00 86 1016.5
20191020155006 48 127 2.0 2.0 0.00 0.11 0.00 86 1016.6
20191020154506 47 145 1.0 5.0 0.00 0.11 0.00 86 1016.8
20191020154006 47 151 2.0 5.0 0.00 0.12 0.00 86 1016.7
20191020153506 47 155 1.0 3.0 0.00 0.12 0.00 86 1016.8
20191020153007 47 144 2.0 3.0 0.00 0.13 0.00 86 1016.8
20191020152506 47 165 0.0 3.0 0.00 0.14 0.00 85 1017.0
20191020152006 47 141 0.0 1.0 0.00 0.14 0.00 85 1016.9
20191020151507 47 228 1.0 3.0 0.00 0.14 0.00 86 1016.9
20191020151006 47 157 1.0 3.0 0.00 0.14 0.00 87 1016.8
20191020150506 47 130 2.0 3.0 0.00 0.14 0.00 87 1016.8
20191020150006 47 153 1.0 3.0 0.00 0.14 0.00 88 1016.9
20191020145506 47 165 2.0 5.0 0.00 0.14 0.00 88 1016.9
20191020145006 47 128 1.0 5.0 0.00 0.14 0.00 88 1017.0
20191020144506 47 152 2.0 5.0 0.00 0.14 0.00 88 1016.9
20191020144006 47 142 2.0 5.0 0.00 0.14 0.00 88 1016.9
20191020143506 47 133 1.0 3.0 0.00 0.14 0.00 88 1016.9
20191020143006 47 130 1.0 3.0 0.00 0.14 0.00 88 1017.0
20191020142505 47 152 1.0 3.0 0.00 0.14 0.00 88 1017.1
20191020142007 47 146 2.0 5.0 0.00 0.14 0.00 89 1017.0
20191020141506 47 153 1.0 3.0 0.00 0.14 0.00 89 1017.1
20191020141006 47 109 1.0 3.0 0.00 0.14 0.00 89 1017.0
20191020140505 47 133 1.0 6.0 0.00 0.14 0.00 89 1017.1
20191020140006 47 187 1.0 3.0 0.00 0.14 0.00 89 1017.2
20191020135506 47 198 1.0 2.0 0.00 0.14 0.00 89 1017.2
20191020135006 47 145 1.0 3.0 0.00 0.14 0.00 89 1017.3
20191020134506 47 159 1.0 5.0 0.00 0.14 0.00 89 1017.3
20191020134006 47 134 2.0 5.0 0.00 0.14 0.00 89 1017.3
20191020133506 47 148 2.0 5.0 0.00 0.14 0.00 88 1017.3
20191020133007 47 181 1.0 3.0 0.00 0.14 0.00 88 1017.4
20191020132507 47 173 1.0 3.0 0.00 0.14 0.00 89 1017.5
20191020132006 47 240 2.0 5.0 0.00 0.14 0.00 89 1017.5
20191020131506 47 162 1.0 3.0 0.00 0.14 0.00 89 1017.5
20191020131006 47 143 1.0 5.0 0.00 0.14 0.00 89 1017.6
20191020130506 47 143 2.0 5.0 0.00 0.14 0.00 89 1017.7
20191020130006 47 157 2.0 5.0 0.00 0.14 0.00 90 1017.8
20191020125507 47 138 0.0 3.0 0.00 0.14 0.00 90 1017.9
20191020125006 47 146 2.0 5.0 0.00 0.14 0.00 90 1017.8
20191020124506 47 142 2.0 5.0 0.00 0.14 0.00 90 1017.8
20191020124006 47 153 2.0 5.0 0.00 0.14 0.00 90 1018.0
20191020123507 47 245 0.0 3.0 0.00 0.14 0.00 91 1018.0
20191020123007 47 171 1.0 6.0 0.00 0.14 0.00 91 1017.9
20191020122506 47 159 1.0 2.0 0.00 0.14 0.00 91 1017.7
20191020122006 47 198 0.0 2.0 0.00 0.14 0.00 91 1017.8
20191020121506 47 198 2.0 5.0 0.00 0.14 0.00 91 1018.0
20191020121007 47 135 2.0 3.0 0.00 0.14 0.00 91 1018.2
20191020120506 47 256 1.0 6.0 0.00 0.14 0.00 91 1018.1
20191020120006 47 182 2.0 6.0 0.00 0.14 0.00 91 1017.9
20191020115506 47 134 2.0 12.0 0.00 0.14 0.00 91 1017.7
20191020115007 47 165 1.0 12.0 0.00 0.14 0.00 91 1017.6
20191020114506 47 143 2.0 6.0 0.00 0.14 0.00 92 1017.5
20191020114007 47 151 1.0 3.0 0.00 0.14 0.00 92 1017.4
20191020113506 47 128 3.0 5.0 0.00 0.14 0.00 92 1017.4
20191020113006 47 164 1.0 3.0 0.00 0.14 0.00 92 1017.3
20191020112506 47 157 2.0 5.0 0.00 0.14 0.00 92 1017.4
20191020112007 47 132 0.0 2.0 0.00 0.14 0.00 92 1017.4
20191020111506 48 342 0.0 0.0 0.00 0.14 0.00 90 1017.6
20191020111006 48 0 0.0 1.0 0.00 0.14 0.00 90 1017.7
20191020110506 48 0 1.0 5.0 0.00 0.14 0.00 90 1017.7
20191020110006 48 0 3.0 7.0 0.00 0.14 0.00 90 1017.8
20191020105506 48 0 2.0 6.0 0.00 0.14 0.00 90 1017.7
20191020105007 48 0 4.0 8.0 0.00 0.14 0.00 90 1017.8
20191020104507 48 0 2.0 6.0 0.00 0.14 0.00 90 1017.8
20191020104006 48 0 2.0 6.0 0.00 0.14 0.00 90 1017.7
20191020103508 48 0 4.0 6.0 0.00 0.14 0.00 90 1017.8
20191020103005 48 0 2.0 9.0 0.00 0.14 0.00 90 1017.7
20191020102505 48 0 5.0 10.0 0.00 0.14 0.00 91 1017.8
20191020102006 48 0 3.0 8.0 0.00 0.14 0.00 91 1017.7
20191020101504 48 0 3.0 6.0 0.00 0.14 0.00 91 1017.7
20191020101005 48 0 4.0 5.0 0.00 0.14 0.00 91 1017.8
20191020100505 48 0 5.0 8.0 0.00 0.14 0.00 91 1017.9
20191020100005 48 0 5.0 9.0 0.00 0.14 0.00 91 1018.0
20191020095505 48 0 4.0 9.0 0.00 0.14 0.00 91 1018.0
20191020095005 48 0 3.0 7.0 0.00 0.14 0.00 91 1018.0
20191020094505 48 0 5.0 7.0 0.00 0.14 0.00 91 1018.0
20191020094005 48 0 2.0 6.0 0.00 0.14 0.00 91 1018.0
20191020093505 48 0 4.0 8.0 0.00 0.14 0.00 91 1018.0
20191020093005 48 0 2.0 7.0 0.00 0.14 0.00 91 1018.1
20191020092504 48 0 3.0 7.0 0.00 0.14 0.00 90 1018.1
20191020092005 48 0 2.0 7.0 0.00 0.14 0.00 90 1018.0
20191020091504 48 0 5.0 9.0 0.00 0.14 0.00 90 1018.0
20191020091005 48 0 3.0 8.0 0.00 0.14 0.00 90 1018.1
20191020090504 48 0 2.0 8.0 0.00 0.14 0.00 90 1018.1
20191020090004 48 0 3.0 7.0 0.00 0.14 0.00 90 1018.0
20191020085505 48 0 3.0 6.0 0.00 0.14 0.00 89 1017.9
20191020085005 48 0 3.0 9.0 0.00 0.14 0.00 89 1017.9
20191020084505 48 0 5.0 8.0 0.00 0.14 0.00 89 1017.9
20191020084005 48 0 4.0 6.0 0.00 0.14 0.00 89 1017.8
20191020083505 48 0 2.0 5.0 0.00 0.14 0.00 89 1017.8
20191020083006 48 0 4.0 7.0 0.00 0.14 0.00 89 1017.8
20191020082505 48 0 4.0 8.0 0.00 0.14 0.00 89 1017.7
20191020082006 48 0 2.0 6.0 0.00 0.14 0.00 89 1017.5
20191020081505 48 0 4.0 7.0 0.00 0.14 0.00 89 1017.6
20191020081005 48 0 3.0 8.0 0.00 0.14 0.00 89 1017.9
20191020080504 47 0 4.0 9.0 0.00 0.14 0.00 90 1017.7
20191020080005 47 0 2.0 6.0 0.00 0.14 0.00 90 1017.7
20191020075504 47 0 2.0 8.0 0.00 0.14 0.00 89 1017.7
20191020075005 48 0 4.0 6.0 0.00 0.14 0.00 89 1017.7
20191020074506 48 0 2.0 6.0 0.00 0.14 0.00 89 1017.6
20191020074005 48 0 1.0 7.0 0.00 0.14 0.00 89 1017.5
20191020073505 48 0 3.0 8.0 0.00 0.14 0.00 89 1017.5
20191020073006 48 0 1.0 6.0 0.00 0.14 0.00 89 1017.5
20191020072504 48 0 1.0 5.0 0.00 0.14 0.00 89 1017.5
20191020072006 48 0 1.0 3.0 0.00 0.14 0.00 89 1017.5
20191020071505 48 0 1.0 3.0 0.00 0.14 0.00 89 1017.4
20191020071005 48 0 1.0 3.0 0.00 0.14 0.00 90 1017.3
20191020070505 48 0 0.0 2.0 0.00 0.14 0.00 89 1017.2
20191020070005 48 0 1.0 3.0 0.00 0.14 0.00 89 1017.2
20191020065504 48 0 0.0 1.0 0.00 0.14 0.14 90 1017.3
20191020065005 48 0 0.0 1.0 0.00 0.14 0.14 90 1017.3
20191020064505 48 0 0.0 2.0 0.00 0.14 0.14 90 1017.4
20191020064005 48 0 0.0 0.0 0.00 0.14 0.14 91 1017.4
20191020063505 48 0 0.0 1.0 0.00 0.14 0.14 91 1017.5
20191020063005 48 0 0.0 3.0 0.00 0.14 0.14 90 1017.5
20191020062505 48 0 2.0 6.0 0.00 0.14 0.14 90 1017.5
20191020062005 48 0 1.0 5.0 0.00 0.14 0.14 90 1017.4
20191020061505 48 0 3.0 6.0 0.00 0.14 0.14 90 1017.4
20191020061006 48 0 0.0 3.0 0.00 0.14 0.14 90 1017.3
20191020060505 48 0 2.0 6.0 0.00 0.14 0.14 90 1017.3
20191020060005 48 0 0.0 5.0 0.00 0.14 0.14 90 1017.2
20191020055505 48 0 1.0 6.0 0.00 0.14 0.14 90 1017.0
20191020055005 48 0 2.0 6.0 0.00 0.14 0.14 90 1017.0
20191020054505 48 0 0.0 3.0 0.00 0.14 0.14 90 1016.9
20191020054005 48 0 0.0 3.0 0.00 0.14 0.14 91 1016.8
20191020053505 48 0 1.0 3.0 0.00 0.14 0.14 90 1016.6
20191020053006 48 0 1.0 3.0 0.00 0.14 0.14 90 1016.6
20191020052505 48 0 0.0 3.0 0.00 0.14 0.14 90 1016.7
20191020052005 48 0 2.0 3.0 0.00 0.14 0.14 90 1016.6
20191020051505 48 0 2.0 3.0 0.00 0.14 0.14 90 1016.5
20191020051005 48 0 2.0 5.0 0.00 0.14 0.14 89 1016.5
20191020050505 48 0 5.0 8.0 0.00 0.14 0.14 90 1016.4
20191020050005 48 0 3.0 6.0 0.00 0.14 0.14 90 1016.3
20191020045505 48 0 2.0 6.0 0.00 0.14 0.14 90 1016.4
20191020045005 48 0 1.0 7.0 0.00 0.14 0.14 90 1016.2
20191020044505 48 0 3.0 6.0 0.00 0.14 0.14 90 1016.1
20191020044005 48 0 2.0 5.0 0.00 0.14 0.14 89 1015.9
20191020043504 48 0 1.0 6.0 0.00 0.14 0.14 90 1015.9
20191020043005 48 0 2.0 5.0 0.00 0.14 0.14 90 1015.8
20191020042505 48 0 2.0 6.0 0.00 0.14 0.14 89 1015.7
20191020042005 48 0 1.0 5.0 0.00 0.14 0.14 89 1015.6
20191020041505 48 0 3.0 6.0 0.00 0.14 0.14 89 1015.5
20191020041005 49 0 1.0 6.0 0.00 0.14 0.14 89 1015.5
20191020040505 49 0 2.0 6.0 0.00 0.14 0.14 89 1015.4
20191020040006 49 0 1.0 3.0 0.00 0.14 0.14 89 1015.4
20191020035505 49 0 0.0 3.0 0.00 0.14 0.14 90 1015.4
20191020035005 49 0 0.0 5.0 0.00 0.14 0.14 90 1015.3
20191020034505 49 0 0.0 3.0 0.00 0.14 0.14 91 1015.1
20191020034006 50 0 0.0 0.0 0.00 0.14 0.14 91 1015.1
20191020033505 50 0 0.0 0.0 0.00 0.14 0.14 91 1015.1
20191020033005 50 0 1.0 3.0 0.00 0.14 0.14 92 1015.1
20191020032505 49 0 0.0 0.0 0.00 0.14 0.14 92 1015.1
20191020032005 49 0 0.0 0.0 0.00 0.14 0.14 92 1015.0
20191020031505 49 0 0.0 0.0 0.00 0.14 0.14 92 1014.9
20191020031005 49 0 0.0 0.0 0.00 0.14 0.14 92 1014.8
20191020030505 49 0 0.0 0.0 0.00 0.14 0.14 92 1014.7
20191020030005 49 0 0.0 0.0 0.00 0.14 0.14 92 1014.6
20191020025506 49 0 0.0 0.0 0.00 0.14 0.14 92 1014.5
20191020025006 49 0 0.0 0.0 0.00 0.14 0.14 92 1014.5
20191020024505 49 0 0.0 0.0 0.00 0.14 0.14 91 1014.4
20191020024005 50 0 0.0 0.0 0.00 0.14 0.14 91 1014.3
20191020023505 50 0 0.0 0.0 0.00 0.14 0.14 91 1014.2
20191020023006 50 0 0.0 0.0 0.00 0.14 0.14 91 1014.1
20191020022505 50 0 0.0 0.0 0.00 0.14 0.14 91 1014.0
20191020022006 50 0 0.0 0.0 0.00 0.14 0.14 91 1014.0
20191020021505 50 0 0.0 0.0 0.00 0.14 0.14 91 1013.8
20191020021005 50 0 0.0 0.0 0.00 0.14 0.14 91 1013.7
20191020020505 50 0 0.0 0.0 0.00 0.14 0.14 91 1013.5
20191020020005 51 0 0.0 0.0 0.00 0.14 0.14 91 1013.5
20191020015505 51 0 0.0 0.0 0.00 0.14 0.14 91 1013.4
20191020015005 51 0 0.0 0.0 0.00 0.14 0.14 90 1013.5
20191020014505 51 0 0.0 0.0 0.00 0.14 0.14 90 1013.3
20191020014005 51 0 0.0 0.0 0.00 0.14 0.14 90 1013.3
20191020013506 51 0 0.0 0.0 0.00 0.14 0.14 90 1013.2
20191020013005 51 0 0.0 0.0 0.00 0.14 0.14 89 1013.1
20191020012505 52 0 0.0 0.0 0.00 0.14 0.14 89 1013.0
20191020012005 52 0 0.0 0.0 0.00 0.14 0.14 89 1012.8
20191020011505 52 0 0.0 0.0 0.00 0.14 0.14 88 1012.5
20191020011006 52 0 0.0 0.0 0.00 0.14 0.14 88 1012.4
20191020010505 52 0 0.0 0.0 0.00 0.14 0.14 87 1012.4
20191020010006 52 0 0.0 1.0 0.00 0.14 0.14 87 1012.3
20191020005505 52 0 1.0 2.0 0.00 0.14 0.14 86 1012.2
20191020005006 53 0 0.0 0.0 0.00 0.14 0.14 86 1012.3
20191020004505 53 0 0.0 0.0 0.00 0.14 0.14 86 1012.2
20191020004006 53 0 0.0 0.0 0.00 0.14 0.14 86 1012.1
20191020003505 53 0 0.0 0.0 0.00 0.14 0.14 85 1012.1
20191020003005 53 0 0.0 0.0 0.00 0.14 0.14 85 1011.9
20191020002505 54 0 0.0 1.0 0.00 0.14 0.14 85 1011.8
20191020002006 54 0 0.0 1.0 0.00 0.14 0.14 85 1011.8
20191020001506 54 0 0.0 2.0 0.00 0.14 0.14 83 1011.8
20191020001006 55 0 0.0 2.0 0.00 0.14 0.14 83 1011.7
20191020000506 55 0 1.0 2.0 0.00 0.14 0.14 82 1011.6
20191020000006 55 325 0.0 2.0 0.00 0.14 0.14 83 1011.5
20191019235505 55 325 1.0 3.0 0.00 0.14 0.14 83 1011.4
20191019235006 55 317 1.0 3.0 0.00 0.14 0.14 83 1011.4
20191019234505 55 357 1.0 2.0 0.00 0.14 0.14 84 1011.4
20191019234005 55 0 1.0 2.0 0.00 0.14 0.14 84 1011.3
20191019233505 55 318 1.0 2.0 0.00 0.14 0.14 84 1011.3
20191019233005 55 318 1.0 2.0 0.00 0.14 0.14 84 1011.3
20191019232505 55 318 1.0 2.0 0.00 0.14 0.14 85 1011.2
20191019232005 55 318 1.0 2.0 0.00 0.14 0.14 85 1011.3
20191019231505 55 329 1.0 2.0 0.00 0.14 0.14 83 1011.2
20191019231006 55 0 1.0 3.0 0.00 0.14 0.14 84 1011.1
20191019230505 55 0 1.0 3.0 0.00 0.14 0.14 86 1011.0
20191019230005 55 0 1.0 3.0 0.00 0.14 0.14 88 1010.8
20191019225505 54 0 1.0 3.0 0.00 0.14 0.14 88 1010.7
20191019225005 54 0 0.0 2.0 0.00 0.14 0.14 87 1010.7
20191019224505 54 0 1.0 3.0 0.00 0.14 0.14 86 1010.6
20191019224005 54 328 1.0 2.0 0.00 0.14 0.14 87 1010.5
20191019223505 54 0 1.0 2.0 0.00 0.14 0.14 89 1010.4
20191019223005 54 0 1.0 2.0 0.00 0.14 0.14 91 1010.4
20191019222505 53 0 1.0 3.0 0.00 0.14 0.14 92 1010.3
20191019222006 53 0 0.0 2.0 0.00 0.14 0.14 92 1010.2
20191019221506 53 0 1.0 2.0 0.00 0.14 0.14 93 1010.1
20191019221006 52 0 1.0 3.0 0.00 0.14 0.14 92 1010.0
20191019220505 52 0 1.0 2.0 0.00 0.14 0.14 93 1009.9
20191019220006 52 0 0.0 1.0 0.00 0.14 0.14 93 1009.9
20191019215505 52 0 0.0 2.0 0.00 0.14 0.14 93 1009.8
20191019215006 52 0 0.0 0.0 0.00 0.14 0.14 93 1009.8
20191019214505 52 0 0.0 0.0 0.00 0.14 0.14 94 1009.8
20191019214006 52 0 0.0 0.0 0.00 0.14 0.14 94 1009.8
20191019213506 52 0 0.0 0.0 0.00 0.14 0.14 94 1009.8
20191019213006 52 0 0.0 0.0 0.00 0.14 0.14 94 1009.7
20191019212505 52 0 0.0 1.0 0.00 0.14 0.14 94 1009.7
20191019212006 52 0 0.0 0.0 0.00 0.14 0.14 95 1009.5
20191019211506 51 0 0.0 0.0 0.00 0.14 0.14 95 1009.5
20191019211006 51 49 3.0 5.0 0.00 0.14 0.14 95 1009.4
20191019210505 51 93 3.0 5.0 0.00 0.14 0.14 95 1009.4
20191019210006 51 83 2.0 3.0 0.01 0.14 0.14 95 1009.4
20191019205505 49 110 2.0 2.0 0.01 0.14 0.14 95 1009.3
20191019205006 50 139 1.0 2.0 0.01 0.14 0.14 96 1009.2
20191019204505 49 183 1.0 2.0 0.01 0.14 0.14 96 1009.2
20191019204006 49 145 0.0 2.0 0.02 0.14 0.14 96 1009.2
20191019203505 49 114 0.0 1.0 0.02 0.14 0.14 96 1009.2
20191019203005 49 147 0.0 2.0 0.03 0.14 0.14 96 1009.2
20191019202506 48 98 0.0 3.0 0.04 0.14 0.14 96 1009.2
20191019202005 48 140 1.0 1.0 0.04 0.14 0.14 96 1009.1
20191019201505 48 145 1.0 3.0 0.05 0.14 0.14 96 1009.1
20191019201006 47 145 0.0 1.0 0.05 0.14 0.14 93 1009.1
20191019200506 47 150 0.0 3.0 0.06 0.14 0.14 93 1009.0
20191019200006 47 155 1.0 2.0 0.05 0.13 0.13 93 1008.8
20191019195505 47 140 2.0 3.0 0.05 0.13 0.13 94 1008.8
20191019195006 47 139 1.0 2.0 0.05 0.13 0.13 94 1008.8
20191019194505 47 146 0.0 0.0 0.05 0.13 0.13 95 1008.8
20191019194006 47 135 1.0 1.0 0.05 0.12 0.12 96 1008.7
20191019193506 47 143 1.0 2.0 0.05 0.12 0.12 96 1008.6
20191019193006 47 131 0.0 0.0 0.04 0.11 0.11 95 1008.6
20191019192505 47 121 0.0 0.0 0.03 0.10 0.10 96 1008.5
20191019192005 47 140 0.0 0.0 0.03 0.10 0.10 96 1008.5
20191019191506 47 143 0.0 1.0 0.03 0.09 0.09 96 1008.4
20191019191006 47 125 0.0 1.0 0.03 0.09 0.09 96 1008.4
20191019190506 47 130 0.0 0.0 0.02 0.08 0.08 96 1008.3
20191019190006 47 130 0.0 1.0 0.02 0.08 0.08 96 1008.2
20191019185506 46 138 0.0 3.0 0.02 0.08 0.08 96 1008.1
20191019185006 46 155 0.0 1.0 0.02 0.08 0.08 96 1008.0
20191019184506 46 128 0.0 1.0 0.02 0.08 0.08 96 1008.0
20191019184005 46 130 0.0 1.0 0.01 0.07 0.07 96 1007.8
20191019183505 46 125 0.0 1.0 0.01 0.07 0.07 96 1007.8
20191019183006 46 120 1.0 3.0 0.01 0.07 0.07 96 1007.7
20191019182505 46 167 2.0 3.0 0.01 0.07 0.07 96 1007.6
20191019182006 46 118 0.0 0.0 0.02 0.07 0.07 96 1007.6
20191019181506 46 101 0.0 0.0 0.01 0.06 0.06 96 1007.4
20191019181006 46 137 0.0 0.0 0.01 0.06 0.06 96 1007.3
20191019180506 46 138 0.0 0.0 0.01 0.06 0.06 96 1007.3
20191019180006 46 119 0.0 0.0 0.01 0.06 0.06 96 1007.2
20191019175506 46 137 0.0 0.0 0.01 0.06 0.06 96 1007.1
20191019175006 46 119 0.0 0.0 0.01 0.06 0.06 96 1007.0
20191019174505 46 146 0.0 0.0 0.01 0.06 0.06 96 1006.9
20191019174006 46 146 0.0 0.0 0.02 0.06 0.06 96 1006.8
20191019173506 46 120 0.0 0.0 0.02 0.06 0.06 96 1006.8
20191019173006 46 119 0.0 0.0 0.02 0.06 0.06 96 1006.7
20191019172506 45 118 0.0 0.0 0.02 0.06 0.06 96 1006.6
20191019172007 45 119 0.0 1.0 0.01 0.05 0.05 96 1006.5
20191019171506 45 134 0.0 0.0 0.01 0.05 0.05 96 1006.5
20191019171006 45 130 0.0 0.0 0.01 0.05 0.05 96 1006.4
20191019170506 45 156 0.0 0.0 0.01 0.05 0.05 96 1006.3
20191019170005 45 128 0.0 0.0 0.01 0.05 0.05 96 1006.2
20191019165506 45 129 0.0 0.0 0.02 0.05 0.05 96 1006.1